Limerick, Ireland

11:07 AM GMT on January 18, 2017 (GMT +0000)
Shannon

Weather History for EINN - March, 2013

Change the Weather History Date:

Tuesday, March 26, 2013

  Actual Average Record
Temperature  
Mean Temperature 36 °F -  
Max Temperature 41 °F 54 °F 66 °F (2012)
Min Temperature 30 °F 41 °F 30 °F (2013)
Degree Days  
Heating Degree Days 30    
Moisture  
Dew Point 25 °F    
Average Humidity 66    
Maximum Humidity 86    
Minimum Humidity 44    
Precipitation  
Precipitation 0.00 in 0.08 in - ()
Sea Level Pressure  
Sea Level Pressure 30.03 in    
Wind  
Wind Speed 9 mph ()    
Max Wind Speed 16 mph    
Max Gust Speed -    
Visibility 6.9 miles    
Events      
Averages and records for this station are not official NWS values.
T = Trace of Precipitation, MM = Missing Value Source: Averaged Metar Reports

Daily Weather History Graph

Daily Weather History Graph

Search for Another Location

Airport or City:

Trip Planner

Search our weather history database for the weather conditions in past years. The results will help you decide how hot, cold, wet, or windy it might be!

Date:

Astronomy

Mar. 26, 2013 Rise Set
Actual Time 6:23 AM GMT 6:59 PM GMT
Civil Twilight 5:49 AM GMT 7:34 PM GMT
Nautical Twilight 5:08 AM GMT 8:15 PM GMT
Astronomical Twilight 4:24 AM GMT 8:59 PM GMT
Moon 6:22 PM GMT (3/26) 5:37 AM GMT (3/26)
Length of Visible Light 13h 45m
Length of Day
12h 36m
Waxing Gibbous, 99% of the Moon is Illuminated
Mar 26
Waxing Gibbous
Mar 27
Full
Apr 3
Last Quarter
Apr 10
New
Apr 18
First Quarter

Hourly Weather History & Observations

Time (GMT) Temp. Windchill Dew Point Humidity Pressure Visibility Wind Dir Wind Speed Gust Speed Precip Events Conditions
12:00 AM 36 °F - 25 °F 54% 30.06 in 12 mi ENE 4.5 mph - -   Overcast
12:00 AM 35.6 °F 28.0 °F 24.8 °F 65% 30.04 in 6.2 mi ENE 10.4 mph - N/A   Overcast
12:30 AM 35.6 °F 29.2 °F 24.8 °F 65% 30.04 in 6.2 mi ENE 8.1 mph - N/A   Overcast
1:00 AM 35.6 °F 28.6 °F 24.8 °F 65% 30.06 in 6.2 mi ENE 9.2 mph - N/A   Overcast
1:30 AM 35.6 °F 28.0 °F 24.8 °F 65% 30.06 in 6.2 mi ENE 10.4 mph - N/A   Overcast
2:00 AM 35.6 °F 29.2 °F 24.8 °F 65% 30.06 in 6.2 mi ENE 8.1 mph - N/A   Overcast
2:30 AM 35.6 °F 28.0 °F 24.8 °F 65% 30.06 in 6.2 mi NE 10.4 mph - N/A   Overcast
3:00 AM 33.8 °F 26.4 °F 24.8 °F 70% 30.06 in 6.2 mi ENE 9.2 mph - N/A   Overcast
3:30 AM 33.8 °F 26.4 °F 24.8 °F 70% 30.06 in 6.2 mi ENE 9.2 mph - N/A   Overcast
4:00 AM 33.8 °F 26.4 °F 24.8 °F 70% 30.06 in 6.2 mi NE 9.2 mph - N/A   Overcast
4:30 AM 33.8 °F 27.0 °F 24.8 °F 70% 30.06 in 6.2 mi NE 8.1 mph - N/A   Overcast
5:00 AM 33.8 °F 27.7 °F 24.8 °F 70% 30.06 in 6.2 mi ENE 6.9 mph - N/A   Overcast
5:30 AM 33.8 °F 29.6 °F 26.6 °F 75% 30.06 in 6.2 mi East 4.6 mph - N/A   Overcast
6:00 AM 33 °F - 26 °F 66% 30.08 in 12 mi ENE 6.7 mph - -   Mostly Cloudy
6:00 AM 32.0 °F 26.4 °F 26.6 °F 80% 30.06 in 6.2 mi ENE 5.8 mph - N/A   Mostly Cloudy
6:30 AM 32.0 °F 25.6 °F 26.6 °F 80% 30.06 in 6.2 mi NE 6.9 mph - N/A   Mostly Cloudy
7:00 AM 32.0 °F 24.2 °F 26.6 °F 80% 30.06 in 6.2 mi NE 9.2 mph - N/A   Mostly Cloudy
7:30 AM 33.8 °F 26.4 °F 26.6 °F 75% 30.06 in 6.2 mi NE 9.2 mph - N/A   Mostly Cloudy
8:00 AM 33.8 °F 27.0 °F 26.6 °F 75% 30.06 in 6.2 mi NE 8.1 mph - N/A   Mostly Cloudy
8:30 AM 33.8 °F 26.4 °F 24.8 °F 70% 30.06 in 6.2 mi ENE 9.2 mph - N/A   Overcast
9:00 AM 35.6 °F 27.5 °F 24.8 °F 65% 30.06 in 6.2 mi NE 11.5 mph - N/A   Mostly Cloudy
9:30 AM 35.6 °F 27.5 °F 23.0 °F 60% 30.04 in 6.2 mi ENE 11.5 mph - N/A   Mostly Cloudy
10:00 AM 37.4 °F 29.3 °F 23.0 °F 56% 30.04 in 6.2 mi ENE 12.7 mph - N/A   Scattered Clouds
10:30 AM 39.2 °F 31.2 °F 23.0 °F 52% 30.04 in 6.2 mi East 13.8 mph - N/A   Scattered Clouds
11:00 AM 37.4 °F 28.5 °F 23.0 °F 56% 30.04 in 6.2 mi ENE 15.0 mph - N/A   Mostly Cloudy
11:30 AM 37.4 °F 28.2 °F 23.0 °F 56% 30.04 in 6.2 mi East 16.1 mph - N/A   Mostly Cloudy
12:00 PM 38 °F - 24 °F 44% 30.04 in 19 mi ENE 11.2 mph - -   Mostly Cloudy
12:00 PM 37.4 °F 29.8 °F 23.0 °F 56% 30.04 in 6.2 mi ENE 11.5 mph - N/A   Mostly Cloudy
12:30 PM 37.4 °F 29.3 °F 24.8 °F 60% 30.04 in 6.2 mi East 12.7 mph - N/A   Mostly Cloudy
1:00 PM 39.2 °F 31.6 °F 23.0 °F 52% 30.04 in 6.2 mi ENE 12.7 mph - N/A   Mostly Cloudy
1:30 PM 39.2 °F 32.0 °F 24.8 °F 56% 30.01 in 6.2 mi East 11.5 mph - N/A   Mostly Cloudy
2:00 PM 39.2 °F 33.0 °F 23.0 °F 52% 30.01 in 6.2 mi East 9.2 mph - N/A   Mostly Cloudy
2:30 PM 41.0 °F 33.9 °F 21.2 °F 45% 30.01 in 6.2 mi East 12.7 mph - N/A   Mostly Cloudy
3:00 PM 39.2 °F 31.6 °F 24.8 °F 56% 30.01 in 6.2 mi ENE 12.7 mph - N/A   Mostly Cloudy
3:30 PM 41.0 °F 33.1 °F 21.2 °F 45% 30.01 in 6.2 mi East 15.0 mph - N/A   Mostly Cloudy
4:00 PM 41.0 °F 33.1 °F 21.2 °F 45% 30.01 in 6.2 mi East 15.0 mph - N/A   Mostly Cloudy
4:30 PM 39.2 °F 32.0 °F 23.0 °F 52% 30.01 in 6.2 mi ENE 11.5 mph - N/A   Mostly Cloudy
5:00 PM 39.2 °F 31.6 °F 24.8 °F 56% 30.01 in 6.2 mi NE 12.7 mph - N/A   Mostly Cloudy
5:30 PM 39.2 °F 30.8 °F 24.8 °F 56% 29.98 in 6.2 mi ENE 15.0 mph - N/A   Mostly Cloudy
6:00 PM 37 °F - 26 °F 54% 30.01 in 19 mi NE 11.2 mph - -   Partly Cloudy
6:00 PM 37.4 °F 29.8 °F 26.6 °F 65% 30.01 in 6.2 mi NE 11.5 mph - N/A   Mostly Cloudy
6:30 PM 37.4 °F 30.8 °F 28.4 °F 70% 30.01 in 6.2 mi NE 9.2 mph - N/A   Mostly Cloudy
7:00 PM 35.6 °F 27.1 °F 26.6 °F 70% 30.01 in 6.2 mi NE 12.7 mph - N/A   Scattered Clouds
7:30 PM 33.8 °F 24.8 °F 28.4 °F 81% 30.01 in 6.2 mi NE 12.7 mph - N/A   Scattered Clouds
8:00 PM 33.8 °F 25.3 °F 28.4 °F 81% 30.01 in 6.2 mi NE 11.5 mph - N/A   Mostly Cloudy
8:30 PM 33.8 °F 27.0 °F 26.6 °F 75% 30.01 in 6.2 mi NE 8.1 mph - N/A   Scattered Clouds
9:00 PM 33.8 °F 27.7 °F 28.4 °F 81% 30.01 in 6.2 mi NE 6.9 mph - N/A   Scattered Clouds
9:30 PM 32.0 °F 24.2 °F 26.6 °F 80% 30.01 in 6.2 mi NNE 9.2 mph - N/A   Mostly Cloudy
10:00 PM 30.2 °F 22.6 °F 26.6 °F 86% 30.01 in 6.2 mi NNE 8.1 mph - N/A   Scattered Clouds
10:30 PM 30.2 °F 21.9 °F 26.6 °F 86% 30.01 in 6.2 mi NNE 9.2 mph - N/A   Partly Cloudy
11:00 PM 30.2 °F 22.6 °F 26.6 °F 86% 30.01 in - NNE 8.1 mph - N/A   Clear
11:30 PM 30.2 °F 21.9 °F 26.6 °F 86% 30.01 in - NNE 9.2 mph - N/A   Clear